Location: Kearney
(40.6990°N, 99.0810°W)
Time: 22:19:29
(UTC-06:00)

ERS-2 - Pass Details

Date: 18 December 2017
Orbit: 500 x 503 km, 98.6° (Epoch: 21 January)

Event Time Altitude Azimuth Distance (km) Brightness Sun altitude
Rises 18:46:35 0° 162° (SSE) 2,577 5.7 -17.4°
Reaches altitude 10° 18:48:38 10° 161° (SSE) 1,699 4.8 -17.8°
Maximum altitude 18:52:17 78° 75° (ENE) 516 1.9 -18.5°
Drops below altitude 10° 18:55:58 10° 349° (N) 1,713 4.8 -19.1°
Sets 18:58:03 0° 348° (NNW) 2,601 5.7 -19.5°
